Location: Keppel Henge
(44.7900°N, 80.9447°W)
Time: 10:53:47
(UTC-05:00)

N. Korean satellite - Pass Details

Date: 15 October 2017
Orbit: 461 x 513 km, 97.2° (Epoch: 14 December)

Event Time Altitude Azimuth Distance (km) Brightness Sun altitude
Rises 20:37:24 0° 216° (SW) 2,538 10.6 -21.8°
Reaches altitude 10° 20:41:00 10° 255° (WSW) 1,651 10.1 -22.4°
Maximum altitude 20:41:55 11° 270° (W) 1,601 10.3 -22.6°
Drops below altitude 10° 20:42:50 10° 285° (WNW) 1,648 10.4 -22.8°
Sets 20:46:26 0° 325° (NW) 2,521 10.9 -23.4°
